Previsão horária em Rio de Janeiro

Hoje, 22 Junho, Terça-feira

Tempo Temperatura Precipitação Vento Pressão Humidade
00:00 +19°C° 0 mm 1 m/s 763 mmHg 89%
01:00 +19°C° 0 mm 1 m/s 762 mmHg 89%
02:00 +19°C° 0 mm 1 m/s 762 mmHg 89%
03:00 +19°C° 0 mm 1 m/s 762 mmHg 89%
04:00 +18°C° 0 mm 1 m/s 762 mmHg 89%
05:00 +18°C° 0 mm 1 m/s 762 mmHg 88%
06:00 +18°C° 0 mm 1 m/s 762 mmHg 88%
07:00 +19°C° 0 mm 1 m/s 763 mmHg 85%
08:00 +20°C° 0 mm 1 m/s 763 mmHg 83%
09:00 +20°C° 0 mm 1 m/s 763 mmHg 85%
10:00 +21°C° 0 mm 1 m/s 763 mmHg 80%
11:00 +22°C° 0 mm 1 m/s 762 mmHg 76%
12:00 +23°C° 0 mm 1 m/s 762 mmHg 72%
13:00 +24°C° 0 mm 1 m/s 762 mmHg 69%
14:00 +24°C° 0 mm 1 m/s 762 mmHg 67%
15:00 +25°C° 0 mm 2 m/s 761 mmHg 64%
16:00 +24°C° 0 mm 2 m/s 762 mmHg 71%
17:00 +21°C° 0 mm 2 m/s 762 mmHg 78%
18:00 +20°C° 0 mm 3 m/s 762 mmHg 86%
19:00 +20°C° 0.1 mm 3 m/s 763 mmHg 86%
20:00 +20°C° 0.1 mm 3 m/s 763 mmHg 87%
21:00 +20°C° 0.1 mm 3 m/s 763 mmHg 88%
22:00 +20°C° 0.1 mm 3 m/s 764 mmHg 89%
23:00 +20°C° 0.1 mm 2 m/s 764 mmHg 90%

Amanhã, 23 Junho, Quarta-feira

Tempo Temperatura Precipitação Vento Pressão Humidade
00:00 +20°C° 0.1 mm 2 m/s 764 mmHg 91%
01:00 +19°C° 0.3 mm 2 m/s 764 mmHg 92%
02:00 +19°C° 0.3 mm 2 m/s 764 mmHg 93%
03:00 +19°C° 0.3 mm 2 m/s 764 mmHg 94%
04:00 +19°C° 0.5 mm 2 m/s 764 mmHg 94%
05:00 +19°C° 0.5 mm 2 m/s 764 mmHg 93%
06:00 +20°C° 0.5 mm 1 m/s 764 mmHg 93%
07:00 +20°C° 0.5 mm 1 m/s 764 mmHg 92%
08:00 +21°C° 0.5 mm 1 m/s 765 mmHg 91%
09:00 +21°C° 0.5 mm 1 m/s 765 mmHg 90%
10:00 +21°C° 0.3 mm 2 m/s 765 mmHg 85%
11:00 +23°C° 0.3 mm 2 m/s 765 mmHg 81%
12:00 +23°C° 0.3 mm 2 m/s 765 mmHg 76%
13:00 +23°C° 0.1 mm 2 m/s 764 mmHg 73%
14:00 +24°C° 0.1 mm 2 m/s 764 mmHg 70%
15:00 +24°C° 0.1 mm 3 m/s 763 mmHg 67%
16:00 +23°C° 0 mm 2 m/s 764 mmHg 70%
17:00 +21°C° 0 mm 2 m/s 764 mmHg 73%
18:00 +20°C° 0 mm 2 m/s 764 mmHg 76%
19:00 +20°C° 0 mm 2 m/s 764 mmHg 77%
20:00 +20°C° 0 mm 2 m/s 765 mmHg 78%
21:00 +19°C° 0 mm 2 m/s 765 mmHg 80%
22:00 +19°C° 0 mm 2 m/s 765 mmHg 82%
23:00 +18°C° 0 mm 2 m/s 765 mmHg 84%

Depois de amanhã, 24 Junho, Quinta-feira

Tempo Temperatura Precipitação Vento Pressão Humidade
00:00 +18°C° 0 mm 2 m/s 764 mmHg 86%
01:00 +17°C° 0 mm 2 m/s 764 mmHg 87%
02:00 +17°C° 0 mm 2 m/s 764 mmHg 88%
03:00 +17°C° 0 mm 2 m/s 764 mmHg 89%
04:00 +16°C° 0 mm 2 m/s 764 mmHg 90%
05:00 +16°C° 0 mm 2 m/s 764 mmHg 90%
06:00 +16°C° 0 mm 2 m/s 764 mmHg 90%
07:00 +17°C° 0 mm 2 m/s 763 mmHg 83%
08:00 +19°C° 0 mm 2 m/s 763 mmHg 76%
09:00 +20°C° 0 mm 2 m/s 763 mmHg 69%
10:00 +21°C° 0 mm 2 m/s 763 mmHg 63%
11:00 +24°C° 0 mm 2 m/s 763 mmHg 57%
12:00 +25°C° 0 mm 2 m/s 762 mmHg 51%
13:00 +26°C° 0 mm 2 m/s 762 mmHg 50%
14:00 +26°C° 0 mm 3 m/s 761 mmHg 50%
15:00 +26°C° 0 mm 3 m/s 761 mmHg 50%
16:00 +24°C° 0 mm 3 m/s 761 mmHg 57%
17:00 +22°C° 0 mm 3 m/s 761 mmHg 64%
18:00 +20°C° 0 mm 3 m/s 761 mmHg 71%
19:00 +20°C° 0 mm 3 m/s 761 mmHg 73%
20:00 +19°C° 0 mm 3 m/s 761 mmHg 76%
21:00 +19°C° 0 mm 2 m/s 761 mmHg 78%
22:00 +18°C° 0 mm 2 m/s 761 mmHg 78%
23:00 +18°C° 0 mm 2 m/s 761 mmHg 78%

25 Junho, Sexta-feira

Tempo Temperatura Precipitação Vento Pressão Humidade
00:00 +18°C° 0 mm 2 m/s 760 mmHg 78%
01:00 +18°C° 0 mm 2 m/s 760 mmHg 78%
02:00 +17°C° 0 mm 2 m/s 760 mmHg 78%
03:00 +17°C° 0 mm 2 m/s 759 mmHg 78%
04:00 +17°C° 0 mm 2 m/s 760 mmHg 78%
05:00 +17°C° 0 mm 2 m/s 760 mmHg 78%
06:00 +17°C° 0 mm 2 m/s 760 mmHg 79%
07:00 +19°C° 0 mm 2 m/s 760 mmHg 74%
08:00 +20°C° 0 mm 2 m/s 761 mmHg 70%
09:00 +21°C° 0 mm 2 m/s 761 mmHg 66%
10:00 +24°C° 0 mm 2 m/s 761 mmHg 60%
11:00 +26°C° 0 mm 1 m/s 760 mmHg 55%
12:00 +28°C° 0 mm 1 m/s 760 mmHg 50%
13:00 +28°C° 0 mm 1 m/s 760 mmHg 51%
14:00 +28°C° 0 mm 2 m/s 759 mmHg 51%
15:00 +28°C° 0 mm 2 m/s 759 mmHg 52%
16:00 +27°C° 0 mm 2 m/s 759 mmHg 59%
17:00 +25°C° 0 mm 2 m/s 759 mmHg 67%
18:00 +23°C° 0 mm 1 m/s 760 mmHg 74%
19:00 +23°C° 0 mm 1 m/s 760 mmHg 76%
20:00 +22°C° 0 mm 1 m/s 760 mmHg 78%
21:00 +22°C° 0 mm 1 m/s 761 mmHg 80%
22:00 +22°C° 0 mm 1 m/s 761 mmHg 81%
23:00 +21°C° 0 mm 1 m/s 761 mmHg 82%

26 Junho, Sábado

Tempo Temperatura Precipitação Vento Pressão Humidade
00:00 +21°C° 0 mm 1 m/s 761 mmHg 83%
01:00 +21°C° 0 mm 1 m/s 761 mmHg 84%
02:00 +20°C° 0 mm 1 m/s 761 mmHg 84%
03:00 +20°C° 0 mm 1 m/s 760 mmHg 85%
04:00 +19°C° 0 mm 2 m/s 761 mmHg 85%
05:00 +19°C° 0 mm 2 m/s 761 mmHg 85%
06:00 +18°C° 0 mm 2 m/s 761 mmHg 85%
07:00 +20°C° 0 mm 2 m/s 761 mmHg 79%
08:00 +21°C° 0 mm 2 m/s 762 mmHg 73%
09:00 +24°C° 0 mm 2 m/s 762 mmHg 67%
10:00 +25°C° 0 mm 2 m/s 762 mmHg 61%
11:00 +27°C° 0 mm 1 m/s 761 mmHg 56%
12:00 +29°C° 0 mm 1 m/s 761 mmHg 50%
13:00 +29°C° 0 mm 1 m/s 760 mmHg 50%
14:00 +29°C° 0 mm 2 m/s 760 mmHg 50%
15:00 +29°C° 0 mm 2 m/s 759 mmHg 51%
16:00 +27°C° 0 mm 2 m/s 759 mmHg 57%
17:00 +26°C° 0 mm 2 m/s 759 mmHg 63%
18:00 +24°C° 0 mm 2 m/s 759 mmHg 70%
19:00 +23°C° 0 mm 2 m/s 760 mmHg 71%
20:00 +21°C° 0 mm 2 m/s 760 mmHg 72%
21:00 +20°C° 0 mm 2 m/s 760 mmHg 73%
22:00 +20°C° 0 mm 2 m/s 760 mmHg 73%
23:00 +20°C° 0 mm 2 m/s 760 mmHg 72%

27 Junho, Domingo

Tempo Temperatura Precipitação Vento Pressão Humidade
00:00 +19°C° 0 mm 2 m/s 759 mmHg 72%
01:00 +19°C° 0 mm 2 m/s 759 mmHg 73%
02:00 +18°C° 0 mm 2 m/s 759 mmHg 75%
03:00 +18°C° 0 mm 2 m/s 759 mmHg 76%
04:00 +18°C° 0 mm 2 m/s 759 mmHg 77%
05:00 +18°C° 0 mm 2 m/s 759 mmHg 79%
06:00 +17°C° 0 mm 2 m/s 759 mmHg 80%
07:00 +19°C° 0 mm 2 m/s 759 mmHg 73%
08:00 +21°C° 0 mm 2 m/s 759 mmHg 66%
09:00 +23°C° 0 mm 2 m/s 760 mmHg 58%
10:00 +26°C° 0 mm 2 m/s 759 mmHg 50%
11:00 +28°C° 0 mm 2 m/s 759 mmHg 42%
12:00 +30°C° 0 mm 2 m/s 758 mmHg 34%
13:00 +30°C° 0 mm 1 m/s 758 mmHg 35%
14:00 +31°C° 0 mm 1 m/s 758 mmHg 35%
15:00 +31°C° 0 mm 1 m/s 757 mmHg 35%
16:00 +28°C° 0 mm 2 m/s 758 mmHg 48%
17:00 +26°C° 0 mm 3 m/s 759 mmHg 61%
18:00 +22°C° 0 mm 4 m/s 759 mmHg 73%
19:00 +22°C° 0 mm 4 m/s 760 mmHg 79%
20:00 +22°C° 0 mm 3 m/s 761 mmHg 84%
21:00 +21°C° 0 mm 3 m/s 762 mmHg 90%
22:00 +21°C° 0 mm 3 m/s 762 mmHg 90%
23:00 +21°C° 0 mm 3 m/s 762 mmHg 90%
Mostrar mais